Location: Moscow
(38.8570°N, 84.2291°W)
Time: 05:45:51
(UTC+00:00)

SKYMED 2 - Visible Passes

Search period start: 09 February 2026 00:00
Search period end: 19 February 2026 00:00
Orbit: 621 x 624 km, 97.9° (Epoch: 8 February)

Date Brightness Start Highest point End Pass type
(mag) Time Alt. Az. Time Alt. Az. Time Alt. Az.
9 Feb 6.8 01:13:06 10° NW 01:13:54 10° WNW 01:14:44 10° WNW visible
9 Feb 4.6 10:27:34 10° SE 10:31:42 46° ENE 10:35:51 10° N visible
9 Feb 5.2 12:05:45 10° SW 12:08:05 14° W 12:10:25 10° WNW visible
9 Feb 3.9 23:52:03 10° N 23:56:23 72° WNW 00:00:42 10° SSW visible
10 Feb 3.7 10:45:21 10° SSE 10:49:40 75° ENE 10:54:01 10° N visible
11 Feb 4.8 00:10:13 10° N 00:14:21 44° WNW 00:18:28 10° SW visible
11 Feb 6.8 09:31:01 10° ENE 09:32:07 11° ENE 09:33:13 10° NE visible
11 Feb 3.5 11:03:22 10° S 11:07:40 68° WSW 11:12:01 10° NNW visible
12 Feb 5.7 00:28:32 10° N 00:32:16 28° WNW 00:35:58 10° SW visible
12 Feb 6.3 09:47:10 10° ESE 09:49:55 17° ENE 09:52:42 10° NNE visible
12 Feb 3.9 11:21:39 10° S 11:25:44 41° W 11:29:51 10° NNW visible
13 Feb 6.3 00:47:07 10° NNW 00:50:08 19° WNW 00:53:09 10° WSW visible
13 Feb 5.7 10:04:13 10° SE 10:07:47 25° ENE 10:11:21 10° NNE visible
13 Feb 4.5 11:40:13 10° SSW 11:43:50 26° W 11:47:29 10° NW visible
14 Feb 6.7 01:06:13 10° NW 01:07:57 12° WNW 01:09:41 10° W visible
14 Feb 4.9 10:21:40 10° SE 10:25:41 39° ENE 10:29:44 10° N visible
14 Feb 5.1 11:59:13 10° SW 12:01:59 17° W 12:04:46 10° NW visible
14 Feb 3.7 23:45:59 10° N 23:50:21 85° WNW 23:54:41 10° SSW visible
15 Feb 4.0 10:39:21 10° SSE 10:43:38 64° ENE 10:47:56 10° N visible
16 Feb 4.5 00:04:06 10° N 00:08:19 52° WNW 00:12:31 10° SSW visible
16 Feb 3.4 10:57:17 10° S 11:01:37 80° WSW 11:05:59 10° NNW visible
17 Feb 5.4 00:22:21 10° N 00:26:14 33° WNW 00:30:07 10° SW visible
17 Feb 6.5 09:41:34 10° E 09:43:55 15° ENE 09:46:19 10° NNE visible
17 Feb 3.7 11:15:28 10° S 11:19:39 48° W 11:23:52 10° NNW visible
18 Feb 6.2 00:40:49 10° NNW 00:44:08 21° WNW 00:47:25 10° WSW visible
18 Feb 6.0 09:58:25 10° ESE 10:01:46 22° ENE 10:05:07 10° NNE visible
18 Feb 4.3 11:33:55 10° SSW 11:37:44 30° W 11:41:34 10° NW visible
